GW2195 Weather Reports


time (UTC)temp
C
wind
direction
speed
KPH
gust
KPH
rain 1hr
cm
rain 24hr
cm
rain mn
cm
humidity
%
barometer
mb
20260508122554 11 220 0.0 3.2 0.48 1.83 1.83 82 1009.6
20260508122042 11 55 0.0 0.0 0.51 1.83 1.83 82 1009.2
20260508121503 11 63 0.0 1.6 0.51 1.83 1.83 83 1009.1
20260508121052 11 105 0.0 1.6 0.51 1.83 1.83 81 1009.2
20260508120541 10 355 0.0 1.6 0.51 1.83 1.83 76 1009.1
20260508115550 9 72 0.0 3.2 0.48 1.83 1.78 86 1009.1
20260508115038 9 5 0.0 4.8 0.43 1.78 1.75 82 1009.3
20260508114600 10 25 0.0 6.4 0.38 1.73 1.70 82 1009.2
20260508114047 11 36 3.2 6.4 0.33 1.65 1.65 78 1009.4
20260508113536 12 296 0.0 8.0 0.20 1.55 1.52 77 1009.7
20260508112553 13 277 9.7 19.3 0.03 1.37 1.35 75 1009.7
20260508112041 14 251 0.0 8.0 0.00 1.35 1.32 73 1009.3
20260508111501 14 230 3.2 9.7 0.00 1.35 1.32 71 1009.3
20260508111052 14 192 6.4 9.7 0.00 1.35 1.32 73 1009.4
20260508110540 14 168 3.2 8.0 0.00 1.35 1.32 74 1009.3
20260508110006 14 160 0.0 9.7 0.00 1.35 1.32 72 1009.4
20260508105557 14 161 1.6 9.7 0.00 1.35 1.32 72 1009.4
20260508105045 14 190 4.8 11.3 0.00 1.35 1.32 72 1009.3
20260508104504 14 140 1.6 11.3 0.00 1.35 1.32 73 1009.4
20260508104057 14 115 4.8 11.3 0.00 1.35 1.32 72 1009.5
20260508103545 14 232 3.2 9.7 0.00 1.35 1.32 78 1009.5
20260508103011 13 225 3.2 9.7 0.00 1.35 1.32 79 1009.5
20260508102600 13 170 0.0 6.4 0.00 1.35 1.32 77 1009.5
20260508102051 13 221 1.6 9.7 0.00 1.35 1.32 79 1009.6
20260508101513 12 189 3.2 9.7 0.00 1.35 1.32 82 1009.5
20260508101058 12 201 0.0 6.4 0.00 1.35 1.32 85 1009.4
20260508100548 12 116 0.0 3.2 0.00 1.35 1.32 87 1009.4
20260508100002 12 336 0.0 3.2 0.00 1.35 1.32 87 1009.4
20260508095553 11 171 0.0 1.6 0.00 1.35 1.32 90 1009.4
20260508095043 11 334 0.0 1.6 0.00 1.35 1.32 89 1009.3
20260508094528 11 321 0.0 0.0 0.00 1.35 1.32 90 1009.4
20260508094100 11 239 0.0 1.6 0.00 1.35 1.32 90 1009.5
20260508093552 11 223 0.0 1.6 0.00 1.35 1.32 89 1009.6
20260508093011 11 298 0.0 1.6 0.00 1.35 1.32 90 1009.6
20260508092558 11 229 0.0 3.2 0.00 1.35 1.32 91 1009.5
20260508092047 11 237 0.0 3.2 0.00 1.35 1.32 91 1009.6
20260508091510 11 180 0.0 1.6 0.00 1.35 1.32 90 1009.6
20260508091057 11 157 0.0 1.6 0.00 1.35 1.32 90 1009.5
20260508090545 11 201 0.0 1.6 0.00 1.35 1.32 90 1009.4
20260508090003 11 180 0.0 1.6 0.00 1.35 1.32 90 1009.6
20260508085553 11 180 0.0 4.8 0.00 1.35 1.32 90 1009.4
20260508085041 11 159 0.0 8.0 0.00 1.35 1.32 91 1009.5
20260508084502 11 210 0.0 4.8 0.00 1.35 1.32 92 1009.4
20260508084052 11 208 0.0 4.8 0.00 1.35 1.32 92 1009.3
20260508083540 11 198 1.6 6.4 0.00 1.35 1.32 93 1009.2
20260508083007 11 188 1.6 3.2 0.00 1.35 1.32 94 1009.0
20260508082559 11 196 0.0 4.8 0.00 1.35 1.32 94 1008.9
20260508082046 11 202 0.0 3.2 0.00 1.35 1.32 94 1008.8
20260508081524 10 181 0.0 1.6 0.00 1.35 1.32 94 1008.8
20260508081059 10 185 0.0 1.6 0.00 1.35 1.32 94 1008.7
20260508080545 10 171 0.0 1.6 0.10 1.35 1.32 95 1008.7
20260508080106 10 103 0.0 0.0 0.18 1.35 1.32 94 1008.6
20260508075549 10 144 0.0 0.0 0.30 1.35 1.32 94 1008.7
20260508075037 10 144 0.0 0.0 0.33 1.35 1.32 94 1008.8
20260508074600 10 144 0.0 0.0 0.33 1.35 1.32 94 1008.7
20260508074051 9 76 0.0 0.0 0.46 1.35 1.32 94 1008.9
20260508073537 9 76 0.0 0.0 0.61 1.35 1.32 94 1008.8
20260508073003 9 15 0.0 0.0 0.79 1.35 1.32 94 1008.8
20260508072553 9 15 0.0 1.6 1.04 1.35 1.32 94 1008.8
20260508072043 9 15 0.0 1.6 1.12 1.35 1.32 94 1008.8
20260508071507 9 23 0.0 1.6 1.14 1.35 1.32 93 1008.8
20260508071052 9 74 0.0 4.8 1.12 1.32 1.30 93 1008.9
20260508070541 9 65 0.0 4.8 1.09 1.24 1.22 93 1008.9
20260508070105 9 38 0.0 0.0 0.99 1.14 1.12 93 1009.1
20260508065548 9 316 0.0 1.6 0.89 1.04 1.02 93 1009.0
20260508065037 9 327 0.0 1.6 0.89 1.02 0.99 93 1008.9
20260508064507 9 342 0.0 6.4 0.84 0.99 0.97 93 1009.0
20260508064057 9 316 0.0 8.0 0.71 0.89 0.86 93 1008.9
20260508063544 9 188 0.0 8.0 0.58 0.71 0.71 93 1009.7
20260508063002 9 187 0.0 4.8 0.36 0.51 0.48 93 1009.5
20260508062553 9 201 0.0 4.8 0.15 0.30 0.28 93 1009.3
20260508062041 9 263 0.0 8.0 0.08 0.23 0.20 93 1008.7
20260508061514 9 341 0.0 9.7 0.05 0.20 0.18 92 1008.5
20260508061101 9 323 3.2 9.7 0.05 0.20 0.18 92 1008.3
20260508060549 10 71 0.0 4.8 0.03 0.15 0.15 92 1008.9
20260508060016 10 229 0.0 8.0 0.00 0.15 0.13 92 1008.9
20260508055559 10 218 4.8 8.0 0.00 0.15 0.13 92 1008.7
20260508055043 10 180 0.0 1.6 0.00 0.15 0.13 92 1008.2
20260508054503 10 46 0.0 0.0 0.00 0.15 0.13 92 1008.0
20260508054054 10 69 0.0 0.0 0.00 0.15 0.13 92 1007.9
20260508053542 10 70 0.0 0.0 0.00 0.15 0.13 92 1007.9
20260508053009 9 70 0.0 0.0 0.00 0.15 0.13 92 1007.9
20260508052557 10 70 0.0 0.0 0.00 0.15 0.13 92 1007.7
20260508052045 9 71 0.0 0.0 0.00 0.15 0.13 91 1007.7
20260508051504 9 56 0.0 0.0 0.00 0.15 0.13 91 1007.6
20260508051054 9 56 0.0 0.0 0.00 0.15 0.13 91 1007.6
20260508050542 9 30 0.0 3.2 0.03 0.15 0.13 91 1007.7
20260508050000 9 25 0.0 3.2 0.03 0.15 0.13 91 1007.5
20260508045551 10 50 0.0 3.2 0.05 0.15 0.13 91 1007.6
20260508045041 10 19 0.0 1.6 0.13 0.15 0.13 91 1007.8
20260508044509 10 40 0.0 1.6 0.13 0.15 0.13 90 1007.9
20260508044059 10 30 0.0 1.6 0.13 0.15 0.13 90 1007.9
20260508043548 10 344 0.0 1.6 0.13 0.15 0.13 89 1007.9
20260508043006 10 355 0.0 1.6 0.13 0.15 0.13 89 1008.1
20260508042559 10 344 0.0 1.6 0.13 0.15 0.13 88 1008.0
20260508042046 10 253 0.0 3.2 0.13 0.15 0.13 88 1007.8
20260508041504 10 234 0.0 4.8 0.13 0.15 0.13 88 1007.6
20260508041054 10 209 0.0 4.8 0.13 0.15 0.13 88 1007.5
20260508040543 10 171 0.0 11.3 0.10 0.13 0.10 88 1007.5
20260508040002 10 17 4.8 11.3 0.10 0.13 0.10 86 1007.6
20260508035551 10 5 4.8 8.0 0.08 0.10 0.08 85 1007.8
20260508035036 10 28 0.0 0.0 0.00 0.03 0.00 82 1008.4
20260508034508 10 5 0.0 0.0 0.00 0.03 0.00 82 1008.5
20260508034056 10 5 0.0 3.2 0.00 0.03 0.00 82 1008.3
20260508033544 10 350 0.0 3.2 0.00 0.03 0.00 82 1008.2
20260508033003 10 355 0.0 3.2 0.00 0.03 0.00 82 1008.1
20260508032554 10 336 0.0 3.2 0.00 0.03 0.00 81 1008.2
20260508032042 10 345 0.0 1.6 0.00 0.03 0.00 80 1008.3
20260508031501 10 344 0.0 1.6 0.00 0.03 0.00 82 1008.4
20260508031052 10 17 0.0 0.0 0.00 0.03 0.00 83 1008.3
20260508030541 10 17 0.0 0.0 0.00 0.03 0.00 82 1008.3
20260508030007 10 17 0.0 0.0 0.00 0.03 0.00 81 1008.2
20260508025557 10 17 0.0 0.0 0.00 0.03 0.00 81 1008.1
20260508025045 10 16 0.0 0.0 0.00 0.03 0.00 81 1008.0
20260508024505 10 355 0.0 0.0 0.00 0.03 0.00 82 1008.2
20260508024059 10 355 0.0 0.0 0.00 0.03 0.00 82 1008.3
20260508023544 10 355 0.0 0.0 0.00 0.03 0.00 82 1008.3
20260508023005 10 355 0.0 0.0 0.00 0.03 0.00 83 1008.3
20260508022552 10 355 0.0 0.0 0.00 0.03 0.00 82 1008.3
20260508022041 10 355 0.0 0.0 0.00 0.03 0.00 83 1008.3
20260508021515 10 355 0.0 0.0 0.00 0.03 0.00 83 1008.2
20260508021100 11 355 0.0 0.0 0.00 0.03 0.00 83 1008.1
20260508020549 11 355 0.0 0.0 0.00 0.03 0.00 83 1008.3
20260508020010 11 355 0.0 1.6 0.00 0.03 0.00 83 1008.5
20260508015558 10 5 0.0 1.6 0.00 0.03 0.00 84 1008.5
20260508015045 10 28 0.0 0.0 0.00 0.03 0.00 83 1008.5
20260508014504 10 28 0.0 0.0 0.00 0.03 0.00 82 1008.5
20260508014054 10 28 0.0 1.6 0.00 0.03 0.00 82 1008.6
20260508013542 10 28 0.0 1.6 0.00 0.03 0.00 83 1008.6
20260508013109 10 46 0.0 0.0 0.00 0.03 0.00 83 1008.7
20260508012551 10 46 0.0 0.0 0.00 0.03 0.00 82 1008.7
20260508012039 10 46 0.0 1.6 0.00 0.03 0.00 82 1008.7
20260508011513 10 46 0.0 1.6 0.00 0.03 0.00 83 1008.7
20260508011102 10 69 0.0 0.0 0.00 0.03 0.00 84 1008.9
20260508010547 10 69 0.0 0.0 0.00 0.03 0.00 84 1008.9
20260508010006 10 69 0.0 0.0 0.00 0.03 0.00 83 1008.9
20260508005557 10 69 0.0 0.0 0.00 0.03 0.00 83 1008.9
20260508005044 10 69 0.0 0.0 0.00 0.03 0.00 83 1009.1
20260508004505 10 69 0.0 0.0 0.00 0.03 0.00 83 1009.0
20260508004056 10 69 0.0 1.6 0.00 0.03 0.00 84 1009.2
20260508003543 10 69 0.0 1.6 0.00 0.03 0.00 84 1009.5
20260508003007 10 27 0.0 0.0 0.00 0.03 0.00 84 1009.5
20260508002558 10 27 0.0 0.0 0.00 0.03 0.00 84 1009.4
20260508002046 10 27 0.0 0.0 0.00 0.03 0.00 83 1009.3
20260508001515 10 27 0.0 0.0 0.00 0.03 0.00 83 1009.3
20260508001056 10 27 0.0 1.6 0.00 0.03 0.00 84 1009.4
20260508000545 10 28 0.0 1.6 0.00 0.03 0.00 83 1009.5
20260508000005 10 22 0.0 0.0 0.00 0.03 0.00 82 1009.5
20260507235553 10 22 0.0 0.0 0.00 0.03 0.00 82 1009.5
20260507235041 10 55 0.0 0.0 0.00 0.03 0.00 81 1009.6
20260507234501 10 9 0.0 0.0 0.00 0.03 0.00 81 1009.8
20260507234052 10 9 0.0 1.6 0.00 0.03 0.00 81 1009.7
20260507233541 11 30 0.0 1.6 0.00 0.03 0.00 80 1009.9
20260507233101 11 21 0.0 1.6 0.00 0.03 0.00 80 1010.0
20260507232548 11 55 0.0 0.0 0.00 0.03 0.00 79 1010.0
20260507232036 11 5 0.0 1.6 0.00 0.03 0.00 78 1010.1
20260507231510 11 5 0.0 1.6 0.00 0.03 0.00 77 1010.1
20260507231059 11 51 0.0 1.6 0.00 0.03 0.00 77 1010.1
20260507230544 12 20 0.0 0.0 0.00 0.03 0.00 77 1010.1
20260507230004 12 19 0.0 0.0 0.00 0.03 0.03 76 1010.4
20260507225552 12 19 0.0 0.0 0.00 0.03 0.03 76 1010.3
20260507225040 12 360 0.0 1.6 0.00 0.03 0.03 75 1010.4
20260507224520 12 5 0.0 1.6 0.00 0.03 0.03 75 1010.4
20260507224101 12 351 0.0 1.6 0.00 0.03 0.03 75 1010.5
20260507223548 12 317 0.0 4.8 0.00 0.03 0.03 74 1010.4
20260507223007 12 346 0.0 4.8 0.00 0.03 0.03 74 1010.4
20260507222558 12 332 0.0 4.8 0.00 0.03 0.03 74 1010.4
20260507222049 12 343 0.0 3.2 0.00 0.03 0.03 74 1010.4
20260507221511 12 9 0.0 3.2 0.00 0.03 0.03 74 1010.4
20260507221056 12 346 0.0 1.6 0.00 0.03 0.03 74 1010.4
20260507220546 12 360 0.0 1.6 0.00 0.03 0.03 74 1010.4
20260507220011 12 22 0.0 3.2 0.00 0.03 0.03 75 1010.4
20260507215602 12 346 0.0 3.2 0.00 0.03 0.03 76 1010.4
20260507215051 12 328 0.0 3.2 0.00 0.03 0.03 77 1010.4
20260507214509 12 355 0.0 1.6 0.00 0.03 0.03 78 1010.4
20260507214100 12 345 0.0 1.6 0.00 0.03 0.03 78 1010.4
20260507213548 12 338 0.0 1.6 0.00 0.03 0.03 78 1010.4
20260507213006 12 42 0.0 0.0 0.00 0.03 0.03 77 1010.2
20260507212555 12 43 0.0 0.0 0.00 0.03 0.03 78 1010.3
20260507212043 12 44 0.0 0.0 0.00 0.03 0.03 77 1010.2
20260507211508 13 42 0.0 0.0 0.00 0.03 0.03 75 1010.1
20260507211051 13 24 0.0 0.0 0.00 0.03 0.03 76 1010.0
20260507210538 13 24 0.0 4.8 0.00 0.03 0.03 74 1009.9
20260507210059 13 19 0.0 6.4 0.00 0.03 0.03 74 1009.7
20260507205548 13 350 1.6 6.4 0.00 0.03 0.03 74 1009.7
20260507205035 13 11 0.0 1.6 0.00 0.03 0.03 74 1009.6
20260507204505 13 342 0.0 1.6 0.00 0.03 0.03 73 1009.4
20260507204056 13 224 0.0 1.6 0.00 0.03 0.03 73 1009.3
20260507203544 13 355 0.0 1.6 0.00 0.03 0.03 72 1009.1
20260507203002 13 360 0.0 1.6 0.00 0.03 0.03 71 1009.1
20260507202552 14 355 0.0 1.6 0.00 0.03 0.03 71 1009.0
20260507202041 14 340 0.0 1.6 0.00 0.03 0.03 71 1009.0
20260507201502 14 5 0.0 1.6 0.00 0.03 0.03 70 1008.8
20260507201052 14 22 0.0 3.2 0.00 0.03 0.03 70 1008.8
20260507200540 15 344 0.0 3.2 0.00 0.03 0.03 69 1008.7
20260507200008 15 345 0.0 6.4 0.00 0.03 0.03 68 1008.7
20260507195558 15 341 0.0 6.4 0.00 0.03 0.03 68 1008.7
20260507195046 15 330 1.6 6.4 0.00 0.03 0.03 66 1008.6
20260507194506 15 360 0.0 4.8 0.00 0.03 0.03 66 1008.5
20260507194056 15 346 0.0 6.4 0.00 0.03 0.03 66 1008.4
20260507193544 16 329 0.0 6.4 0.00 0.03 0.03 64 1008.4
20260507193012 16 30 0.0 6.4 0.00 0.03 0.03 64 1008.3
20260507192601 16 5 0.0 4.8 0.00 0.03 0.03 64 1008.2
20260507192049 16 5 1.6 9.7 0.00 0.03 0.03 63 1008.2
20260507191516 16 321 1.6 9.7 0.00 0.03 0.03 62 1008.2
20260507191100 16 5 0.0 3.2 0.00 0.03 0.03 62 1008.1
20260507190549 16 355 0.0 4.8 0.00 0.03 0.03 61 1008.0
20260507190007 17 5 0.0 4.8 0.00 0.03 0.03 60 1007.9
20260507185558 17 13 0.0 4.8 0.00 0.03 0.03 59 1007.8
20260507185046 17 92 0.0 4.8 0.00 0.03 0.03 58 1007.8
20260507184505 17 282 0.0 8.0 0.00 0.03 0.03 57 1007.7
20260507184056 17 5 0.0 8.0 0.00 0.03 0.03 57 1007.7
20260507183544 18 307 0.0 4.8 0.00 0.03 0.03 56 1007.6
20260507183108 18 346 0.0 9.7 0.00 0.03 0.03 54 1007.6
20260507182551 18 12 1.6 9.7 0.00 0.03 0.03 53 1007.5
20260507182040 18 89 0.0 9.7 0.00 0.03 0.03 52 1007.5
20260507181509 18 263 0.0 6.4 0.00 0.03 0.03 51 1007.4
20260507181102 19 276 0.0 6.4 0.00 0.03 0.03 50 1007.5
20260507180547 19 235 0.0 9.7 0.00 0.03 0.03 48 1007.4
20260507180004 19 230 3.2 9.7 0.00 0.03 0.03 48 1007.4
20260507175554 19 211 0.0 8.0 0.00 0.03 0.03 48 1007.4
20260507175042 19 49 0.0 8.0 0.00 0.03 0.03 47 1007.3
20260507174505 19 196 1.6 6.4 0.00 0.03 0.03 46 1007.3
20260507174052 20 66 0.0 8.0 0.00 0.03 0.03 47 1007.3
20260507173543 20 303 0.0 8.0 0.00 0.03 0.03 47 1007.4
20260507173109 20 328 0.0 4.8 0.00 0.03 0.03 45 1007.5
20260507172552 20 25 0.0 4.8 0.00 0.03 0.03 45 1007.3
20260507172040 20 228 0.0 4.8 0.00 0.03 0.03 46 1007.4
20260507171600 20 5 0.0 4.8 0.00 0.03 0.03 44 1007.3
20260507171048 20 335 1.6 4.8 0.00 0.03 0.03 45 1007.4
20260507170537 20 44 0.0 6.4 0.00 0.03 0.03 45 1007.3
20260507170011 20 167 1.6 11.3 0.00 0.03 0.03 46 1007.3
20260507165554 20 269 1.6 11.3 0.00 0.03 0.03 45 1007.2
20260507165043 20 340 3.2 16.1 0.00 0.03 0.03 45 1007.2
20260507164511 21 178 8.0 16.1 0.00 0.03 0.03 44 1007.2
20260507164104 21 191 1.6 8.0 0.00 0.03 0.03 43 1007.2
20260507163552 21 259 0.0 11.3 0.00 0.03 0.03 46 1007.2
20260507163006 21 298 0.0 8.0 0.00 0.03 0.03 47 1007.3
20260507162557 20 171 3.2 8.0 0.00 0.03 0.03 47 1007.3
20260507162046 20 278 0.0 3.2 0.00 0.03 0.03 47 1007.3
20260507161505 20 245 0.0 4.8 0.03 0.03 0.03 48 1007.3
20260507161054 20 244 0.0 6.4 0.03 0.03 0.03 50 1007.4
20260507160542 19 315 1.6 6.4 0.03 0.03 0.03 50 1007.4
20260507160103 18 224 0.0 6.4 0.03 0.03 0.03 50 1007.4
20260507155550 18 205 0.0 3.2 0.03 0.03 0.03 52 1007.5
20260507155044 17 246 0.0 1.6 0.03 0.03 0.03 53 1007.5
20260507154508 17 61 0.0 1.6 0.03 0.03 0.03 61 1007.5
20260507154057 17 61 0.0 1.6 0.03 0.03 0.03 59 1007.5
20260507153544 16 5 0.0 1.6 0.03 0.03 0.03 60 1007.6
20260507153000 16 355 0.0 3.2 0.03 0.03 0.03 66 1007.7
20260507152552 16 34 0.0 3.2 0.03 0.03 0.03 72 1007.7
20260507152039 17 109 0.0 3.2 0.03 0.03 0.03 68 1007.8
20260507151601 17 49 0.0 6.4 0.00 0.00 0.00 64 1007.9
20260507151049 17 92 0.0 9.7 0.00 0.00 0.00 62 1008.0
20260507150539 18 190 3.2 9.7 0.00 0.00 0.00 52 1008.1
20260507150005 18 144 1.6 9.7 0.00 0.00 0.00 50 1008.1
20260507145556 18 136 0.0 8.0 0.00 0.00 0.00 49 1007.9
20260507145043 18 140 3.2 8.0 0.00 0.00 0.00 48 1008.1
20260507144504 18 167 1.6 16.1 0.00 0.00 0.00 49 1008.2
20260507144054 18 168 3.2 16.1 0.00 0.00 0.00 52 1008.2
20260507143541 17 90 1.6 12.9 0.00 0.00 0.00 55 1008.2
20260507143108 17 11 1.6 16.1 0.00 0.00 0.00 56 1008.2
20260507142550 17 102 3.2 22.5 0.00 0.00 0.00 56 1008.2
20260507142038 16 65 3.2 22.5 0.00 0.00 0.00 60 1008.2
20260507141508 15 317 6.4 19.3 0.00 0.00 0.00 63 1008.2
20260507141059 15 203 4.8 19.3 0.00 0.00 0.00 65 1008.4
20260507140548 15 73 8.0 16.1 0.00 0.00 0.00 67 1008.4
20260507140007 15 27 3.2 16.1 0.00 0.00 0.00 66 1008.4
20260507135555 15 27 4.8 17.7 0.00 0.00 0.00 65 1008.5
20260507135044 15 57 6.4 20.9 0.00 0.00 0.00 64 1008.6
20260507134513 15 109 8.0 20.9 0.00 0.00 0.00 62 1008.6
20260507134001 15 44 8.0 19.3 0.00 0.00 0.00 61 1008.6
20260507133552 15 32 6.4 19.3 0.00 0.00 0.00 62 1008.7
20260507133010 16 10 6.4 17.7 0.00 0.00 0.00 62 1008.8
20260507132600 16 149 6.4 17.7 0.00 0.00 0.00 61 1008.7
20260507132051 16 142 8.0 17.7 0.00 0.00 0.00 59 1008.8
20260507131509 16 156 3.2 12.9 0.00 0.00 0.00 60 1008.7
20260507131059 16 138 0.0 20.9 0.00 0.00 0.00 56 1008.8
20260507130547 17 130 8.0 20.9 0.00 0.00 0.00 50 1008.9
20260507130005 17 146 3.2 30.6 0.00 0.00 0.00 51 1008.8
20260507125556 17 107 11.3 30.6 0.00 0.00 0.00 53 1008.9
20260507125042 18 157 9.7 24.1 0.00 0.00 0.00 52 1008.9
20260507124503 18 175 8.0 12.9 0.00 0.00 0.00 48 1008.8
20260507124053 18 217 1.6 9.7 0.00 0.00 0.00 46 1008.6
20260507123542 18 175 4.8 12.9 0.00 0.00 0.00 45 1008.6
20260507123010 19 248 6.4 14.5 0.00 0.00 0.00 45 1008.7